Regional Weather Roundup
Issued by NWS Columbia, SC

Home | Current Version | Previous Version | Text Only | Print | Product List | Glossary On
Versions: 1 2 3 4 5 6 7 8 9 10 11 12 13 14 15 16 17 18 19 20 21 22 23 24 25 26 27
000
ASUS42 KCAE 240510
RWRCAE
REGIONAL WEATHER ROUNDUP
NATIONAL WEATHER SERVICE COLUMBIA SC
1200 AM EST TUE JAN 24 2017

NOTE: "FAIR" INDICATES FEW OR NO CLOUDS BELOW 12,000 FEET WITH NO
SIGNIFICANT WEATHER AND/OR OBSTRUCTIONS TO VISIBILITY.

NOT ALL STATIONS ARE QUALITY CONTROLLED BY THE NATIONAL
WEATHER SERVICE. USE DATA WITH CAUTION...ESPECIALLY
DEWPOINT OBSERVATIONS.

SCZ001>056-GAZ040-063>065-077-240600-
...UPSTATE SOUTH CAROLINA...

CITY           SKY/WX    TMP DP  RH WIND       PRES   REMARKS
ANDERSON       CLEAR     52  42  69 W15       29.58R
LIBERTY        CLEAR     51  42  70 W10G16    29.56R
SPARTANBURG    CLOUDY    54  41  62 N3        29.56R
CLEMSON        CLEAR     52  41  66 W8        29.59R
GREENVILLE     CLOUDY    55  47  74 CALM      29.57R
GREENWOOD      CLEAR     51  43  74 W8        29.59R
GREER          CLOUDY    55  41  59 N8G17     29.55R
ROCK HILL      CLOUDY    50  45  83 CALM      29.53R
CHESTER        CLOUDY    50  48  93 CALM      29.55R
LAURENS        PTCLDY    52  48  87 W7        29.56R


...CENTRAL SOUTH CAROLINA...

CITY           SKY/WX    TMP DP  RH WIND       PRES   REMARKS
COLUMBIA APT   MOCLDY    57  50  77 W12       29.54R
COLUMBIA OWENS CLOUDY    57  49  74 NW7       29.54R
MCENTIRE ANGB  PTCLDY    53  49  86 W7        29.53R
ORANGEBURG     PTCLDY    56  50  80 NW13      29.55R
SUMTER SHAW    CLOUDY    54  49  83 W6        29.50R
NEWBERRY       MOCLDY    52  50  93 W5        29.58R
AIKEN          FAIR      50  45  81 W9        29.60R
BARNWELL       FAIR      55  48  76 VRB7      29.58R
MANNING        CLOUDY    54  48  82 CALM      29.52S
CAMDEN         CLOUDY    52  48  87 NW5       29.52S
LANCASTER      CLOUDY    50  48  93 CALM      29.53S
WINNSBORO      PTCLDY    52  48  87 W5        29.53R


...EASTERN AND COASTAL SOUTH CAROLINA...

CITY           SKY/WX    TMP DP  RH WIND       PRES   REMARKS
MYRTLE BEACH   MOCLDY    52  46  82 W10       29.50R
N MYRTLE BCH   CLEAR     50  49  96 W6        29.47R
CONWAY         MOCLDY    50  48  93 CALM      29.50R
MARION         CLOUDY    50  46  87 NW9       29.50R
HARTSVILLE     MOCLDY    48  45  87 N3        29.51R
FLORENCE       CLOUDY    52  48  86 NW9       29.51R
DARLINGTON     CLOUDY    50  45  83 NW9       29.52R
CHARLESTON APT PTCLDY    55  51  86 W8        29.52F
MOUNT PLEASANT MOCLDY    55  52  88 W7        29.52F
WALTERBORO     CLEAR     54  50  87 W9        29.57R
BEAUFORT       CLEAR     56  47  71 W12       29.57R


...EASTERN GEORGIA...

CITY           SKY/WX    TMP DP  RH WIND       PRES   REMARKS
AUGUSTA BUSH F NOT AVBL
AUGUSTA DANIEL CLEAR     54  42  64 W12G18    29.59R
THOMSON        CLEAR     54  47  77 NW7       29.66R
CLAXTON        FAIR     N/A N/A N/A W12G17    29.63R
SYLVANIA       CLEAR    N/A N/A N/A NW15G21   29.61R
STATESBORO     PTCLDY    55  48  76 NW15      29.62R
SAVANNAH       CLEAR     56  45  66 W14       29.60R


...SOUTHERN NORTH CAROLINA...

CITY           SKY/WX    TMP DP  RH WIND       PRES   REMARKS
CHARLOTTE      CLOUDY    48  44  86 NE5       29.53S
MONROE         LGT RAIN  48  41  76 N6        29.52R
ASHEVILLE      MOCLDY    47  37  68 NW18G28   29.56R

$$




USA.gov is the U.S. government's official web portal to all federal, state and local government web resources and services.